Preview of NWS' New Version of Forecast
This preview is not operational and should not be used for support decisions.

Regional Weather Roundup (RWR)

Issued by National Weather Service (NWS)

                            
000
ASUS43 KDTX 181101
RWRMI 
MICHIGAN HOURLY REGIONAL WEATHER ROUNDUP
NATIONAL WEATHER SERVICE DETROIT/PONTIAC MI
700 AM EDT TUE JUN 18 2019

NOTE: "FAIR" INDICATES FEW OR NO CLOUDS BELOW 12,000 FEET WITH NO
SIGNIFICANT WEATHER AND/OR OBSTRUCTION TO VISIBILITY.

MIZ047>049-052>055-059>063-066>070-074>076-081>083-181200-
SOUTHEAST LOWER MICHIGAN
  
CITY           SKY/WX    TMP DP  RH WIND       PRES   REMARKS
ADRIAN         FAIR      58  56  93 CALM      29.98R                  
ALMA           FAIR      55  54  95 CALM      29.98S FOG              
ANN ARBOR      FAIR      55  55 100 CALM      29.97S FOG              
BAD AXE        FAIR      49  48  97 CALM      29.98R                  
DETROIT CITY   FAIR      59  52  77 CALM      29.97R                  
DETROIT        CLOUDY    58  52  80 CALM      29.97S                  
FLINT          CLOUDY    62  57  83 CALM      29.97S                  
HILLSDALE      FOG       55  54  97 CALM      29.97F VSB 1/2          
HOWELL         CLOUDY    61  58  89 CALM      29.98R                  

CITY           SKY/WX    TMP DP  RH WIND       PRES   REMARKS
JACKSON        FAIR      56  56 100 CALM      29.97S                  
LAMBERTVILLE   MOCLDY    59  59  99 CALM      29.97R FOG              
LANSING        MOCLDY    60  60 100 CALM      29.97S FOG              
LAPEER         CLOUDY    58  57  96 CALM      29.98S                  
MASON          CLOUDY    61  60  96 CALM      29.97S FOG              
MT. CLEMENS    PTSUNNY   57  57 100 CALM      29.96R                  
PONTIAC        MOCLDY    61  57  87 CALM      29.96S                  
PORT HOPE        N/A     50  49  96 CALM      29.97R                  
PORT HURON     CLOUDY    59  50  72 CALM      29.97S                  
TRI CITIES     FAIR      57  56  96 N3        29.98S                  
MIDLAND        FAIR      52  52 100 CALM      29.97F                  
TROY           CLOUDY    60  52  74 CALM      29.99S                  
SAGINAW HB     FAIR      59  55  88 CALM      29.97S FOG              
$$
MIZ043>046-050>051-056>058-064>065-071>073-077>080-181200-
SOUTHWEST LOWER MICHIGAN
  
CITY           SKY/WX    TMP DP  RH WIND       PRES   REMARKS
BATTLE CREEK   FAIR      59  59 100 N3        29.97S                  
BENTON HARBOR  CLOUDY    60  58  92 CALM      29.97S                  
BIG RAPIDS     MOCLDY    53  51  95 CALM      29.98S                  
COLDWATER      FOG       58  58 100 CALM      29.98R VSB<1/4          
FREMONT        CLOUDY    58  56  92 CALM      29.98R                  
HOLLAND        CLOUDY    61  58  90 CALM      29.97F                  
GRAND RAPIDS   MOCLDY    59  57  93 NE5       29.97F                  
IONIA          CLOUDY    60  59  94 CALM      29.97S FOG              
KALAMAZOO      FAIR      61  59  93 CALM      29.97S FOG              
MARSHALL       FAIR      60  60 100 CALM      29.97S FOG              
MUSKEGON       CLOUDY    62  55  77 N3        29.98S                  
SOUTH HAVEN    CLOUDY    60  58  96 CALM      29.98R                  
$$
MIZ016>042-181200-
NORTHERN LOWER MICHIGAN
  
CITY           SKY/WX    TMP DP  RH WIND       PRES   REMARKS
ALPENA         FAIR      50  48  93 CALM      29.98S                  
BEAVER ISLAND  CLOUDY    53  50  88 CALM      29.97S                  
BELLAIRE       MIX PCPN  54  51  89 CALM      29.98R                  
CADILLAC       FAIR      52  51  94 CALM      29.97S                  
CHARLEVOIX     MOCLDY    54  50  86 CALM      30.00S                  
FRANKFORT      FAIR      56  50  81 CALM      29.98R                  
GAYLORD        MOCLDY    54  51  90 W3        29.97F                  
HARBOR SPRINGS FAIR      53  52  96 CALM      29.97S                  
HOUGHTON LAKE  FAIR      53  50  89 CALM      29.98S                  
MANISTEE       FAIR      51  48  89 NW6       29.98R                  
OSCODA         FAIR      46  46 100 CALM      29.98R                  
PELLSTON       CLOUDY    54  52  93 CALM      29.97S                  
ROGERS CITY    FAIR      53  50  89 CALM      29.98S                  
TRAVERSE CITY  CLOUDY    56  51  84 CALM      29.96S                  
$$
MIZ007>008-015-181200-
EASTERN UPPER MICHIGAN
  
CITY           SKY/WX    TMP DP  RH WIND       PRES   REMARKS
KINROSS        CLOUDY    55  50  83 NE3       29.98S                  
MACKINAC ISLAN PTSUNNY   54  53  95 CALM      29.97S                  
NEWBERRY       CLOUDY    56  53  92 CALM      29.96F                  
S. S. MARIE    FAIR      55  50  83 E3        29.97S                  
MUNISING         N/A     53  50  89 N10       29.95R                  
$$
MIZ004>006-011>014-085-181200-
CENTRAL UPPER MICHIGAN
  
CITY           SKY/WX    TMP DP  RH WIND       PRES   REMARKS
ESCANABA       LGT RAIN  58  56  93 SE3       29.96R                  
MENOMINEE      LGT RAIN  57  56  96 CALM      29.98R                  
SAWYER-GWINN   MOCLDY    55  52  88 S6        29.95R                  
$$
MIZ001>003-009>011-084-181200-
WESTERN UPPER MICHIGAN
  
CITY           SKY/WX    TMP DP  RH WIND       PRES   REMARKS
IRON MOUNTAIN  CLOUDY    57  54  89 SE3       29.95R                  
HOUGHTON       MOCLDY    49  43  80 CALM      29.94R                  
COPPER HARBOR    N/A     46  44  93 N5        29.94R                  
IRONWOOD       CLOUDY    48  46  93 CALM      29.96S                  
$$

ABBREVIATIONS USED IN REMARKS
   TC - TEMPERATURE IN CELSIUS
  WCI - WIND CHILL INDEX
   HX - HEAT INDEX
  VSB - VISIBILITY